GSAT0102 (GALILEO-FM2)

Last updated on Oct. 24, 2020, 5:54 a.m. UTC

1 37847U 11060B   20296.28946368 -.00000089  00000-0  00000-0 0  9990
2 37847  56.7078  37.8031 0002672 291.1934 144.6845  1.70475362 55942
UTC
Height (km)
Latitude
Longitude
Inclination
Orbital Period
UTC large
Height (km)
Speed (km/s)
/
Latitude / Longitude
Inclination (degrees)
Orbital Period (minutes)
Azimuth
Elevation
Range (km)
Doppler Factor
iOS Compass Heading
iOS Angle

Next 30 passes for location: Hong Kong

Rise time Rise Azimuth (degrees) Set time Set Azimuth (degrees) Duration Max altitude (degrees)

No matching passes for this satellites